Hourly Data Report for September 19, 2017

All times are specified in Local Standard Time (LST). Add 1 hour to adjust for Daylight Saving Time where and when it is observed.

EDMUNDSTON
NEW BRUNSWICK

47°25'00.000" N
68°19'28.040" W
154.20 m
8101303
71590
ERM

Download Data

Hourly Data (September 2017)
Hourly Data Report for September 19, 2017
Temp Definition
°C
Dew Point Temp Definition
°C
Rel Hum Definition
%
Wind Dir Definition
10's deg

Wind Spd Definition
km/h
Visibility Definition
km
Stn Press Definition
kPa
Hmdx Definition


Wind Chill Definition


Weather Definition


TIME
00:00 17.4 15.8 90 15 7   100.35     LegendNANA
01:00 17.4 15.7 90 15 5   100.34     LegendNANA
02:00 17.0 15.2 89 15 7   100.34     LegendNANA
03:00 16.7 14.9 89 15 7   100.32     LegendNANA
04:00 16.5 14.7 89 14 6   100.32     LegendNANA
05:00 16.2 14.4 90 14 7   100.31     LegendNANA
06:00 15.8 14.2 90 13 8   100.32     LegendNANA
07:00 15.8 14.2 90 13 8   100.34     LegendNANA
08:00 16.0 14.4 90 14 7   100.35     LegendNANA
09:00 17.1 14.8 86 13 8   100.35     LegendNANA
10:00 17.8 14.7 82 13 10   100.34     LegendNANA
11:00 18.0 15.1 83 14 9   100.32     LegendNANA
12:00 18.8 15.2 80 13 8   100.29     LegendNANA
13:00 19.2 15.5 79 13 7   100.26     LegendNANA
14:00 20.0 15.7 76 14 9   100.19     LegendNANA
15:00 21.1 16.0 73 13 7   100.13 26   LegendNANA
16:00 21.5 16.1 71 13 6   100.08 26   LegendNANA
17:00 21.8 16.4 71 12 7   100.05 27   LegendNANA
18:00 20.3 16.0 76 15 5   100.06 25   LegendNANA
19:00 17.7 15.5 87 13 4   100.07     LegendNANA
20:00 15.2 13.7 91 11 3   100.10     LegendNANA
21:00 14.0 13.0 94 11 2   100.10     LegendNANA
22:00 14.7 13.9 95 12 5   100.11     LegendNANA
23:00 13.9 12.9 94 9 2   100.10     LegendNANA

Notes on Data Quality.

Legend

  • E = Estimated
  • M = Missing
  • NA = Not Available
  • ‡ = Partner data that is not subject to review by the National Climate Archives
Date modified: